JAS-2 (FO-29) (24278 NORAD) Tracking and Keplerian Element Data

This shows tracking and keplerian element data for the satellite.

Feedback or suggestion? Click here.




ElementValue
Catalog24278
NameJAS-2 (FO-29)
Epoch Orbit9891
Epoch Day322.92235026
Epoch Year2018
RAAN140.3491
Inclination98.5137
Eccentricity0.0351334
Argument of Perigee69.473
Mean Anonmoly294.3742
Mean Motion13.53087296
Decay Rate-1.8E-07
L11 24278U 96046B 18322.92235026 -.00000018 00000-0 15028-4 0 9993
L22 24278 98.5137 140.3491 0351334 69.4730 294.3742 13.53087296 98910

Live tracking and technical data element details for JAS-2 (FO-29) (NORAD 24278). JAS-2 (FO-29) can be tracked NOW for your location showing map with azimuth and elevation plus other details from your city location.

Track the satellite on the map from your city or location and see movement details for azimuth, elevation, latitude, longitude, range, height, and movement on the map or in text.







IsCatalogInMostPopularTable: catalog: 24278, numindb: 117
Update: records affected: 1



GetName: 24278 JAS-2 (FO-29)

Hit Count: updated at: Mon, 19 Nov 2018 11:22:09 GMT